Location: Gallinara
(44.0333°N, 8.2333°E)
Time: 01:25:46
(UTC+00:00)

ATLAS CENTAUR Rocket - Pass Details

Date: 25 September 2020
Orbit: 662 x 36585 km, 28.4° (Epoch: 31 October)

Event Time Altitude Azimuth Distance (km) Brightness Sun altitude
Exits shadow 04:29:13 10° 254° (WSW) 5,412 5.7 -9.6°
Maximum altitude 04:37:05 20° 211° (SSW) 2,466 4.3 -8.2°
Drops below altitude 10° 04:40:49 10° 160° (SSE) 2,382 4.7 -7.5°
Sets 04:43:03 0° 139° (SE) 3,034 5.6 -7.1°
